Location: Newark
(45.4422°N, 16.2769°E)
Time: 11:03:58
(UTC+00:00)

Vanguard 2 - Pass Details

Date: 08 December 2019
Orbit: 553 x 2938 km, 32.9° (Epoch: 21 January)

Event Time Altitude Azimuth Distance (km) Brightness Sun altitude
Rises 23:07:34 0° 206° (SSW) 5,747 - -66.9°
Reaches altitude 10° 23:11:49 10° 195° (SSW) 5,052 - -66.8°
Maximum altitude 23:23:59 29° 144° (SE) 4,265 - -66.1°
Exits shadow 23:33:32 18° 104° (ESE) 5,111 11.6 -65.4°
Drops below altitude 10° 23:37:39 10° 94° (E) 5,732 12.0 -65.1°
Sets 23:42:50 0° 84° (E) 6,627 12.5 -64.6°
